Miscellaneous Local Product
Issued by NWS North Platte, NE

Home | Current Version | Previous Version | Text Only | Print | Product List | Glossary On
Versions: 1 2 3 4 5 6 7 8 9 10 11 12 13 14 15 16 17 18 19 20 21 22 23 24 25 26 27 28 29 30 31 32 33 34 35 36 37 38 39 40 41 42 43 44 45 46 47 48 49 50
000
AXUS43 KLBF 290510
MISLBF


WESTERN AND NORTH CENTRAL NEBRASKA HOURLY WEATHER ROUNDUP
NATIONAL WEATHER SERVICE NORTH PLATTE NE
1100 PM CST WED JAN 28 2015

***STATIONS NOT REPORTING VARIABLES SUCH AS SKY/WEATHER OR
PRESSURE ARE PROVIDED BY THE NEBRASKA DEPARTMENT OF
ROADS...RAWS...AND APRS NETWORKS...AND ARE NOT UNDER
NATIONAL WEATHER SERVICE QUALITY CONTROL***

...OBSERVATIONS IN AND NEAR THE EASTERN PANHANDLE OF NEBRASKA...

CITY           SKY/WX    TMP DP  RH WIND       PRES   REMARKS
PINE RIDGE     CLEAR     33  26  75 N15       30.27R WCI  23
CHADRON        MOCLDY    31  27  85 NE6       30.29R WCI  25
ALLIANCE       CLEAR     34  28  79 N13       30.26R WCI  25
SIDNEY         CLOUDY    40  29  64 NW15      30.25R WCI  32
WHITECLAY        N/A     30  25  80 E14         N/A  WCI  20
CRESCENT LAKE    N/A     35  27  74 N17         N/A  WCI  25
LISCO            N/A     43  25  49 W16         N/A
LEWELLEN         N/A     40  31  70 W13         N/A  WCI  32
$$

...OBSERVATIONS IN NORTH CENTRAL NEBRASKA...

CITY           SKY/WX    TMP DP  RH WIND       PRES   REMARKS
VALENTINE      CLOUDY    36  29  75 N29G44    30.20R WCI  23
THEDFORD       CLOUDY    37  32  79 N26G36    30.19R WCI  26
AINSWORTH      CLOUDY    35  29  81 NW26G39   30.18R WCI  22
O`NEILL        CLOUDY    36  31  85 NW32G44   30.10R WCI  22
ORD            CLOUDY    39  31  72 N31G41    30.08R WCI  27
BROKEN BOW     CLOUDY    41  32  70 N37G46    30.12R
BROWNLEE         N/A     36  32  85 N37         N/A  WCI  22
VALENTINE NWR    N/A     35  30  82 N26G39      N/A  WCI  22
SPRINGVIEW       N/A     35  29  79 NW20G35     N/A  WCI  24
BREWSTER         N/A     37  32  81 W32         N/A  WCI  25
ROSE             N/A     37  35  92 SW26        N/A  WCI  24
NEWPORT          N/A     36  32  85 NW30        N/A  WCI  23
SARGENT          N/A     39  32  77 N12G26      N/A  WCI  32
COMSTOCK         N/A     43  34  69 W31         N/A
CHAMBERS         N/A     36  29  76 N10G26      N/A  WCI  28
EWING            N/A     36  30  80 N18G30      N/A  WCI  26
$$

...OBSERVATIONS IN SOUTHWEST NEBRASKA AND FAR NORTHEAST COLORADO...

CITY           SKY/WX    TMP DP  RH WIND       PRES   REMARKS
WRAY           FAIR      38  35  89 W7        30.21R WCI  32
HOLYOKE        FAIR      43  34  70 NW16G23   30.22R
IMPERIAL       CLEAR     42  33  70 NW17      30.18R
OGALLALA       CLEAR     39  32  75 NW14      30.21R WCI  31
NORTH PLATTE   CLEAR     41  32  70 NW16G23   30.17R
MCCOOK         CLEAR     43  32  65 NW17      30.13R
LEXINGTON      CLEAR     46  33  59 NW22G30   30.10R
BRADY            N/A     42  31  64 SW5G12      N/A
GOTHENBURG       N/A     44  31  61 NW15        N/A
CALLAWAY         N/A     40  33  76 NW24        N/A  WCI  29
$$

...NORTH PLATTE AREA...

CITY           SKY/WX    TMP DP  RH WIND       PRES   REMARKS
AIRPORT        CLEAR     41  32  70 NW16G23   30.17R
DOWNTOWN         N/A     42  33  70 N12G21      N/A
$$

...SOME WEATHER OBSERVATIONS FROM AROUND THE REGION...

CITY           SKY/WX    TMP DP  RH WIND       PRES   REMARKS
DENVER         PTCLDY    36  30  79 NE7       30.29R WCI  30
LARAMIE        FLURRIES  30  28  92 N8        30.30R WCI  22
CHEYENNE       CLOUDY    37  24  59 N15       30.29R WCI  28
SCOTTSBLUFF    CLOUDY    40  30  67 W9        30.27R WCI  34
RAPID CITY     MOCLDY    32  27  81 N21       30.28R WCI  20
PIERRE         CLOUDY    36  29  75 NW26      30.18R WCI  24
WINNER         CLOUDY    37  30  75 NW25      30.18R WCI  25
SIOUX FALLS    CLOUDY    34  30  85 N26G36    29.98R WCI  21
OMAHA          CLOUDY    45  36  70 N32G45    29.89R
GRAND ISLAND   MOCLDY    46  34  62 N29G41    30.01R
KANSAS CITY    MOCLDY    55  36  48 NW17G25   29.81R
WICHITA        LGT RAIN  59  31  34 NW17      29.98R
HAYS           CLEAR     52  27  37 NW14      30.08R
LIBERAL        PTCLDY    43  28  56 NW9         N/A
GOODLAND       CLEAR     40  35  83 NW14      30.21R WCI  32
$$



USA.gov is the U.S. government's official web portal to all federal, state and local government web resources and services.